Simultaneous Nadir Overpasses (SNOs) Predictions

Prediction of SNOs between LANDSAT-8 and NOAA-19 Satellite Orbit:

Table of predicted SNOs for the next 14.0 days since TLE Epoch: 1/8/2022
Index Date (LANDSAT-8) Time (LANDSAT-8) Lat,Lon (LANDSAT-8) SZA (LANDSAT-8 ) Date (NOAA-19) Time (NOAA-19) Lat,Lon (NOAA-19) SZA (NOAA-19 ) Distance(km) Time Diff (sec)
1 01/08/2022 23:48:26 80.65,-143.39 104.09 01/08/2022 23:47:45 80.66,-143.21 104.09 3.38 41
2 01/09/2022 00:37:53 -80.65, 24.21 75.93 01/09/2022 00:38:45 -80.65, 24.28 75.90 1.28 52
3 01/11/2022 06:11:36 80.66, 120.92 103.75 01/11/2022 06:11:48 80.65, 121.06 103.76 2.77 12
4 01/13/2022 11:45:20 -80.66,-142.47 76.63 01/13/2022 11:44:52 -80.66,-142.49 76.64 0.44 28
5 01/13/2022 12:34:47 80.64, 24.87 103.32 01/13/2022 12:35:52 80.66, 24.96 103.37 2.75 65
6 01/15/2022 17:19:03 80.67, -45.84 102.97 01/15/2022 17:17:56 80.67, -45.71 102.95 2.36 67
7 01/15/2022 18:08:30 -80.67, 121.80 77.04 01/15/2022 18:08:54 -80.65, 121.90 77.04 2.56 24
8 01/17/2022 23:42:13 80.67,-141.60 102.52 01/17/2022 23:41:59 80.66,-141.49 102.51 2.37 14
9 01/20/2022 05:15:57 -80.67, -45.02 77.97 01/20/2022 05:15:01 -80.67, -44.96 77.98 1.05 56



Historial Predications of SNOs between LANDSAT-8 and NOAA-19
